Location: Shenandoah County Park
(38.9356°N, 78.4524°W)
Time: 07:34:11
(UTC-04:00)

Vanguard 1 - Pass Details

Date: 09 February 2023
Orbit: 648 x 3832 km, 34.3° (Epoch: 01 April)

Event Time Altitude Azimuth Distance (km) Brightness Sun altitude
Exits shadow 05:54:21 20° 258° (WSW) 2,334 11.4 -15.6°
Maximum altitude 05:59:36 66° 181° (S) 1,586 11.1 -14.6°
Drops below altitude 10° 06:12:18 10° 103° (ESE) 5,066 15.2 -12.2°
Sets 06:17:24 0° 101° (E) 6,585 16.5 -11.2°
